Location: Gwatt
(46.7204°N, 7.6223°E)
Time: 17:19:30
(UTC+00:00)

Terra - Pass Details

Date: 18 September 2020
Orbit: 701 x 703 km, 98.2° (Epoch: 29 October)

Event Time Altitude Azimuth Distance (km) Brightness Sun altitude
Exits shadow 20:18:54 19° 32° (NNE) 1,667 3.8 -27.2°
Drops below altitude 10° 20:20:51 10° 11° (NNE) 2,182 4.6 -27.4°
Sets 20:23:29 0° 358° (N) 3,105 5.7 -27.8°
